User: anonymous   Login
Location: Unspecified
(0.0000°N, 0.0000°E)
Time: 06:49:47
(UTC+00:00)
Language:

OCO 2 - Orbit

View from above orbital plane
View from above orbital plane
View from above satellite
View from above satellite

Ground track
Ground track

The orbit data is extracted from the following two-line orbital elements,

1 40059U 14035A   19291.91894088 +.00000015 +00000-0 +13354-4 0  9996
2 40059 098.2047 231.0569 0001291 078.0739 282.0604 14.57114209281707
Epoch (UTC): 18 October 2019 22:03:16
Eccentricity: 0.0001291
inclination: 98.2047°
perigee height: 701 km
apogee height: 703 km
right ascension of ascending node: 231.0569°
argument of perigee: 78.0739°
revolutions per day: 14.57114209
mean anomaly at epoch: 282.0604°
orbit number at epoch: 28170

The dashed part of the orbit path shows where the satellite is in the earth's shadow,  

DLR